Retour au catalogue

COSMOS 2251 DEB

ActifLEO
NORAD 34116·DEBRIS·🇷🇺 Russia

Lancé Jun 16, 1993 depuis Plesetsk Cosmodrome

Loading…

Prochains Passages (prochaines 24 heures)

TLE

FraisSource: Space-Track

Époque: Sep 14, 2026, 15:08 UTC

1 34116U 93036KM  26257.63060872  .00001764  00000-0  42066-3 0  9999
2 34116  74.0416  21.6297 0011364  27.5571 345.1472 14.54450604924967

Suivez COSMOS 2251 DEB en temps réel avec AllMySat

Download on the App Store